Shreveport, LA

5:25 AM CST on February 22, 2017 (GMT -0600)
Shreveport Downtown

Weather History for KDTN - February, 2013

Change the Weather History Date:

Thursday, February 28, 2013

  Actual Average (KBAD) Record (KBAD)
Temperature  
Mean Temperature 46 °F -  
Max Temperature 55 °F 59 °F 77 °F (2006)
Min Temperature 36 °F 41 °F 19 °F (2002)
Degree Days  
Heating Degree Days 20    
Moisture  
Dew Point 26 °F    
Average Humidity 49    
Maximum Humidity 70    
Minimum Humidity 29    
Precipitation  
Precipitation 0.00 in - - ()
Sea Level Pressure  
Sea Level Pressure 30.17 in    
Wind  
Wind Speed 8 mph (NW)    
Max Wind Speed 13 mph    
Max Gust Speed 22 mph    
Visibility 10 miles    
Events      
Averages and records for this station are not official NWS values.
T = Trace of Precipitation, MM = Missing Value Source: NWS Daily Summary

Daily Weather History Graph

Daily Weather History Graph

Search for Another Location

Airport or City:

Trip Planner

Search our weather history database for the weather conditions in past years. The results will help you decide how hot, cold, wet, or windy it might be!

Date:

Astronomy

Feb. 28, 2013 Rise Set
Actual Time 6:43 AM CST 6:11 PM CST
Civil Twilight 6:18 AM CST 6:36 PM CST
Nautical Twilight 5:50 AM CST 7:05 PM CST
Astronomical Twilight 5:21 AM CST 7:33 PM CST
Moon 9:24 PM CST (2/28) 8:06 AM CST (2/28)
Length of Visible Light 12h 17m
Length of Day
11h 28m
Waning Gibbous, 90% of the Moon is Illuminated
Feb 28
Waning Gibbous
Mar 4
Last Quarter
Mar 11
New
Mar 19
First Quarter
Mar 27
Full

Hourly Weather History & Observations

Time (CST) Temp. Windchill Dew Point Humidity Pressure Visibility Wind Dir Wind Speed Gust Speed Precip Events Conditions
12:53 AM 43.0 °F 36.8 °F 25.0 °F 49% 30.14 in 10.0 mi NW 11.5 mph - N/A   Clear
1:53 AM 41.0 °F 34.7 °F 26.1 °F 55% 30.15 in 10.0 mi NNW 10.4 mph - N/A   Clear
2:53 AM 39.0 °F 34.8 °F 27.0 °F 62% 30.16 in 10.0 mi NNW 5.8 mph - N/A   Clear
3:53 AM 37.9 °F 32.1 °F 27.0 °F 65% 30.17 in 10.0 mi NW 8.1 mph - N/A   Clear
4:53 AM 37.0 °F 30.4 °F 27.0 °F 67% 30.17 in 10.0 mi NW 9.2 mph - N/A   Clear
5:53 AM 37.0 °F 31.0 °F 27.0 °F 67% 30.18 in 10.0 mi NW 8.1 mph - N/A   Clear
6:53 AM 36.0 °F 31.1 °F 27.0 °F 70% 30.18 in 10.0 mi NW 5.8 mph - N/A   Clear
7:53 AM 39.0 °F 34.0 °F 28.0 °F 65% 30.21 in 10.0 mi NW 6.9 mph - N/A   Clear
8:53 AM 42.1 °F 37.1 °F 28.0 °F 58% 30.23 in 10.0 mi NNW 8.1 mph - N/A   Clear
9:53 AM 46.0 °F 41.4 °F 28.0 °F 50% 30.23 in 10.0 mi NW 9.2 mph - N/A   Clear
10:53 AM 48.9 °F - 26.1 °F 41% 30.24 in 10.0 mi North 10.4 mph - N/A   Clear
11:53 AM 51.1 °F - 25.0 °F 36% 30.22 in 10.0 mi North 9.2 mph - N/A   Clear
12:53 PM 53.1 °F - 26.1 °F 35% 30.19 in 10.0 mi NNW 8.1 mph 20.7 mph N/A   Clear
1:53 PM 54.0 °F - 24.1 °F 31% 30.16 in 10.0 mi NNW 9.2 mph 21.9 mph N/A   Clear
2:53 PM 55.0 °F - 24.1 °F 30% 30.13 in 10.0 mi NNW 12.7 mph 17.3 mph N/A   Clear
3:53 PM 55.0 °F - 23.0 °F 29% 30.12 in 10.0 mi NNW 8.1 mph - N/A   Clear
4:53 PM 54.0 °F - 23.0 °F 30% 30.12 in 10.0 mi NW 12.7 mph - N/A   Clear
5:53 PM 52.0 °F - 24.1 °F 34% 30.12 in 10.0 mi WNW 10.4 mph - N/A   Clear
6:53 PM 48.9 °F - 26.1 °F 41% 30.14 in 10.0 mi WNW 4.6 mph - N/A   Clear
7:53 PM 46.9 °F - 27.0 °F 46% 30.15 in 10.0 mi Calm Calm - N/A   Clear
8:53 PM 45.0 °F - 27.0 °F 49% 30.15 in 10.0 mi Calm Calm - N/A   Clear
9:53 PM 44.1 °F - 28.0 °F 53% 30.16 in 10.0 mi Calm Calm - N/A   Clear
10:53 PM 42.1 °F 40.2 °F 28.9 °F 60% 30.16 in 10.0 mi West 3.5 mph - N/A   Clear
11:53 PM 41.0 °F - 28.9 °F 62% 30.16 in 8.0 mi Calm Calm - N/A   Clear